User: anonymous   Login
Location: Laguna de la Cañada del Gallo
(40.3974°N, 5.2096°W)
Time: 16:58:36
(UTC+00:00)
Language:

Cosmos 2100 Rocket - Orbit

View from above orbital plane
View from above orbital plane
View from above satellite
View from above satellite

Ground track
Ground track

The orbit data is extracted from the following two-line orbital elements,

1 20805U 90083B   24173.52025245  .00000126  00000-0  11363-3 0  9993
2 20805  82.9365 318.9858 0032023  79.0337 348.2255 13.76106863695629
Epoch (UTC): 21 June 2024 12:29:09
Eccentricity: 0.0032023
inclination: 82.9365°
perigee height: 954 km
apogee height: 1001 km
right ascension of ascending node: 318.9858°
argument of perigee: 79.0337°
revolutions per day: 13.76106863
mean anomaly at epoch: 348.2255°
orbit number at epoch: 69562

The dashed part of the orbit path shows where the satellite is in the earth's shadow,  

DLR